| time (UTC) | temp F | wind direction | speed MPH | gust MPH | rain 1hr in | rain 24hr in | rain mn in | humidity % | barometer mb |
| 20260510230510 | 64 | 0 | 0.0 | 1.0 | 0.00 | 0.00 | 0.00 | 43 | 1021.3 |
| 20260510230030 | 64 | 0 | 0.0 | 0.0 | 0.00 | 0.00 | 0.00 | 43 | 1021.3 |
| 20260510225509 | 64 | 0 | 0.0 | 0.0 | 0.00 | 0.00 | 0.00 | 44 | 1021.3 |
| 20260510225011 | 64 | 0 | 0.0 | 0.0 | 0.00 | 0.00 | 0.00 | 45 | 1021.2 |
| 20260510224530 | 64 | 0 | 0.0 | 0.0 | 0.00 | 0.00 | 0.00 | 43 | 1021.3 |
| 20260510224010 | 64 | 0 | 0.0 | 0.0 | 0.00 | 0.00 | 0.00 | 42 | 1021.3 |
| 20260510223518 | 64 | 0 | 0.0 | 0.0 | 0.00 | 0.00 | 0.00 | 42 | 1021.3 |
| 20260510223027 | 64 | 0 | 0.0 | 0.0 | 0.00 | 0.00 | 0.00 | 44 | 1021.4 |
| 20260510222510 | 64 | 0 | 0.0 | 0.0 | 0.00 | 0.00 | 0.00 | 44 | 1021.3 |
| 20260510222018 | 64 | 0 | 0.0 | 0.0 | 0.00 | 0.00 | 0.00 | 41 | 1021.3 |
| 20260510221532 | 64 | 0 | 0.0 | 2.0 | 0.00 | 0.00 | 0.00 | 40 | 1021.5 |
| 20260510221007 | 64 | 0 | 0.0 | 2.0 | 0.00 | 0.00 | 0.00 | 42 | 1021.4 |
| 20260510220510 | 64 | 0 | 0.0 | 0.0 | 0.00 | 0.00 | 0.00 | 46 | 1021.3 |
| 20260510220028 | 64 | 0 | 0.0 | 0.0 | 0.00 | 0.00 | 0.00 | 41 | 1021.0 |
| 20260510215508 | 64 | 0 | 0.0 | 1.0 | 0.00 | 0.00 | 0.00 | 41 | 1021.1 |
| 20260510215007 | 64 | 0 | 0.0 | 1.0 | 0.00 | 0.00 | 0.00 | 42 | 1021.0 |
| 20260510214528 | 65 | 30 | 0.0 | 1.0 | 0.00 | 0.00 | 0.00 | 41 | 1020.9 |
| 20260510214011 | 65 | 0 | 0.0 | 1.0 | 0.00 | 0.00 | 0.00 | 44 | 1020.9 |
| 20260510213511 | 65 | 0 | 0.0 | 1.0 | 0.00 | 0.00 | 0.00 | 44 | 1021.0 |
| 20260510213033 | 64 | 0 | 0.0 | 4.0 | 0.00 | 0.00 | 0.00 | 45 | 1020.9 |
| 20260510212510 | 64 | 0 | 0.0 | 4.0 | 0.00 | 0.00 | 0.00 | 43 | 1020.8 |
| 20260510212010 | 64 | 27 | 0.0 | 3.0 | 0.00 | 0.00 | 0.00 | 44 | 1020.9 |
| 20260510211545 | 64 | 0 | 0.0 | 6.0 | 0.00 | 0.00 | 0.00 | 44 | 1020.9 |
| 20260510211010 | 64 | 0 | 0.0 | 6.0 | 0.00 | 0.00 | 0.00 | 43 | 1020.9 |
| 20260510210508 | 64 | 0 | 0.0 | 13.0 | 0.00 | 0.00 | 0.00 | 42 | 1020.9 |
| 20260510210028 | 64 | 0 | 0.0 | 13.0 | 0.00 | 0.00 | 0.00 | 44 | 1020.9 |
| 20260510205507 | 64 | 348 | 1.0 | 13.0 | 0.00 | 0.00 | 0.00 | 38 | 1021.0 |
| 20260510205009 | 65 | 35 | 0.0 | 10.0 | 0.00 | 0.00 | 0.00 | 39 | 1021.1 |
| 20260510204544 | 65 | 50 | 0.0 | 8.0 | 0.00 | 0.00 | 0.00 | 43 | 1021.2 |
| 20260510204009 | 65 | 0 | 0.0 | 12.0 | 0.00 | 0.00 | 0.00 | 41 | 1021.1 |
| 20260510203509 | 66 | 32 | 1.0 | 12.0 | 0.00 | 0.00 | 0.00 | 42 | 1021.3 |
| 20260510203032 | 66 | 0 | 0.0 | 4.0 | 0.00 | 0.00 | 0.00 | 41 | 1021.2 |
| 20260510202510 | 66 | 0 | 0.0 | 8.0 | 0.00 | 0.00 | 0.00 | 39 | 1021.3 |
| 20260510202009 | 66 | 39 | 0.0 | 8.0 | 0.00 | 0.00 | 0.00 | 39 | 1021.3 |
| 20260510201531 | 66 | 46 | 0.0 | 10.0 | 0.00 | 0.00 | 0.00 | 46 | 1021.3 |
| 20260510201013 | 65 | 0 | 0.0 | 10.0 | 0.00 | 0.00 | 0.00 | 38 | 1021.4 |
| 20260510200511 | 66 | 353 | 2.0 | 10.0 | 0.00 | 0.00 | 0.00 | 41 | 1021.5 |
| 20260510200029 | 66 | 0 | 0.0 | 2.0 | 0.00 | 0.00 | 0.00 | 41 | 1021.5 |
| 20260510195508 | 66 | 0 | 0.0 | 7.0 | 0.00 | 0.00 | 0.00 | 41 | 1021.6 |
| 20260510195010 | 66 | 0 | 0.0 | 7.0 | 0.00 | 0.00 | 0.00 | 44 | 1021.5 |
| 20260510194530 | 65 | 0 | 0.0 | 3.0 | 0.00 | 0.00 | 0.00 | 46 | 1021.6 |
| 20260510194011 | 65 | 0 | 0.0 | 1.0 | 0.00 | 0.00 | 0.00 | 49 | 1021.5 |
| 20260510193511 | 65 | 0 | 0.0 | 0.0 | 0.00 | 0.00 | 0.00 | 45 | 1021.6 |
| 20260510193031 | 64 | 0 | 0.0 | 4.0 | 0.00 | 0.00 | 0.00 | 48 | 1021.5 |
| 20260510192511 | 63 | 0 | 0.0 | 4.0 | 0.00 | 0.00 | 0.00 | 43 | 1021.5 |
| 20260510192010 | 63 | 32 | 0.0 | 3.0 | 0.00 | 0.00 | 0.00 | 45 | 1021.6 |
| 20260510191531 | 63 | 0 | 0.0 | 1.0 | 0.00 | 0.00 | 0.00 | 46 | 1021.5 |
| 20260510191011 | 63 | 0 | 0.0 | 1.0 | 0.00 | 0.00 | 0.00 | 48 | 1021.5 |
| 20260510190510 | 62 | 0 | 0.0 | 1.0 | 0.00 | 0.00 | 0.00 | 46 | 1021.6 |
| 20260510190036 | 62 | 0 | 0.0 | 1.0 | 0.00 | 0.00 | 0.00 | 49 | 1021.6 |
| 20260510185510 | 62 | 0 | 0.0 | 1.0 | 0.00 | 0.00 | 0.00 | 44 | 1021.4 |
| 20260510185010 | 62 | 0 | 0.0 | 1.0 | 0.00 | 0.00 | 0.00 | 48 | 1021.6 |
| 20260510184528 | 62 | 0 | 0.0 | 1.0 | 0.00 | 0.00 | 0.00 | 46 | 1021.5 |
| 20260510184014 | 61 | 0 | 0.0 | 2.0 | 0.00 | 0.00 | 0.00 | 44 | 1021.5 |
| 20260510183512 | 61 | 0 | 0.0 | 2.0 | 0.00 | 0.00 | 0.00 | 48 | 1021.5 |
| 20260510183035 | 61 | 30 | 0.0 | 8.0 | 0.00 | 0.00 | 0.00 | 48 | 1021.6 |
| 20260510182512 | 61 | 0 | 1.0 | 8.0 | 0.00 | 0.00 | 0.00 | 48 | 1021.5 |
| 20260510182011 | 61 | 0 | 0.0 | 3.0 | 0.00 | 0.00 | 0.00 | 46 | 1021.5 |
| 20260510181542 | 61 | 0 | 0.0 | 8.0 | 0.00 | 0.00 | 0.00 | 45 | 1021.5 |
| 20260510181009 | 61 | 49 | 0.0 | 8.0 | 0.00 | 0.00 | 0.00 | 47 | 1021.4 |
| 20260510180509 | 61 | 27 | 2.0 | 11.0 | 0.00 | 0.00 | 0.00 | 44 | 1021.3 |
| 20260510180033 | 62 | 0 | 4.0 | 11.0 | 0.00 | 0.00 | 0.00 | 40 | 1021.3 |
| 20260510175511 | 62 | 39 | 4.0 | 11.0 | 0.00 | 0.00 | 0.00 | 47 | 1021.2 |
| 20260510175010 | 63 | 0 | 0.0 | 1.0 | 0.00 | 0.00 | 0.00 | 51 | 1021.1 |
| 20260510174529 | 62 | 0 | 0.0 | 8.0 | 0.00 | 0.00 | 0.00 | 46 | 1021.2 |
| 20260510174014 | 62 | 0 | 2.0 | 10.0 | 0.00 | 0.00 | 0.00 | 48 | 1021.3 |
| 20260510173509 | 62 | 7 | 1.0 | 10.0 | 0.00 | 0.00 | 0.00 | 50 | 1021.3 |
| 20260510173028 | 63 | 26 | 4.0 | 10.0 | 0.00 | 0.00 | 0.00 | 45 | 1021.4 |
| 20260510172508 | 63 | 0 | 3.0 | 10.0 | 0.00 | 0.00 | 0.00 | 49 | 1021.4 |
| 20260510172012 | 63 | 79 | 3.0 | 12.0 | 0.00 | 0.00 | 0.00 | 49 | 1021.4 |
| 20260510171530 | 63 | 62 | 3.0 | 12.0 | 0.00 | 0.00 | 0.00 | 49 | 1021.4 |
| 20260510171010 | 62 | 41 | 4.0 | 11.0 | 0.00 | 0.00 | 0.00 | 47 | 1021.4 |
| 20260510170509 | 62 | 49 | 2.0 | 10.0 | 0.00 | 0.00 | 0.00 | 53 | 1021.4 |
| 20260510170027 | 61 | 53 | 3.0 | 12.0 | 0.00 | 0.00 | 0.00 | 51 | 1021.4 |
| 20260510165510 | 62 | 44 | 6.0 | 12.0 | 0.00 | 0.00 | 0.00 | 50 | 1021.3 |
| 20260510165009 | 62 | 68 | 6.0 | 11.0 | 0.00 | 0.00 | 0.00 | 52 | 1021.1 |
| 20260510164534 | 61 | 53 | 3.0 | 11.0 | 0.00 | 0.00 | 0.00 | 48 | 1021.2 |
| 20260510164011 | 61 | 48 | 0.0 | 9.0 | 0.00 | 0.00 | 0.00 | 50 | 1021.2 |
| 20260510163513 | 61 | 55 | 2.0 | 10.0 | 0.00 | 0.00 | 0.00 | 48 | 1021.1 |
| 20260510163030 | 61 | 0 | 5.0 | 10.0 | 0.00 | 0.00 | 0.00 | 49 | 1021.2 |
| 20260510162509 | 61 | 0 | 1.0 | 9.0 | 0.00 | 0.00 | 0.00 | 48 | 1021.1 |
| 20260510162010 | 61 | 49 | 4.0 | 11.0 | 0.00 | 0.00 | 0.00 | 49 | 1021.1 |
| 20260510161528 | 61 | 62 | 1.0 | 12.0 | 0.00 | 0.00 | 0.00 | 48 | 1021.1 |
| 20260510161011 | 61 | 32 | 6.0 | 12.0 | 0.00 | 0.00 | 0.00 | 44 | 1021.0 |
| 20260510160510 | 61 | 65 | 7.0 | 12.0 | 0.00 | 0.00 | 0.00 | 45 | 1021.0 |
| 20260510160028 | 61 | 63 | 4.0 | 11.0 | 0.00 | 0.00 | 0.00 | 48 | 1021.0 |
| 20260510155509 | 61 | 47 | 2.0 | 11.0 | 0.00 | 0.00 | 0.00 | 46 | 1021.1 |
| 20260510155011 | 61 | 0 | 0.0 | 11.0 | 0.00 | 0.00 | 0.00 | 50 | 1021.0 |
| 20260510154528 | 61 | 51 | 4.0 | 14.0 | 0.00 | 0.00 | 0.00 | 51 | 1020.9 |
| 20260510154013 | 61 | 51 | 7.0 | 14.0 | 0.00 | 0.00 | 0.00 | 51 | 1020.8 |
| 20260510153510 | 61 | 30 | 7.0 | 14.0 | 0.00 | 0.00 | 0.00 | 50 | 1020.9 |
| 20260510153039 | 61 | 37 | 7.0 | 13.0 | 0.00 | 0.00 | 0.00 | 47 | 1020.9 |
| 20260510152512 | 61 | 22 | 2.0 | 12.0 | 0.00 | 0.00 | 0.00 | 47 | 1020.8 |
| 20260510152008 | 60 | 30 | 6.0 | 14.0 | 0.00 | 0.00 | 0.00 | 49 | 1020.7 |
| 20260510151533 | 60 | 35 | 8.0 | 14.0 | 0.00 | 0.00 | 0.00 | 47 | 1020.7 |
| 20260510151008 | 60 | 14 | 3.0 | 10.0 | 0.00 | 0.00 | 0.00 | 49 | 1020.9 |
| 20260510150507 | 59 | 10 | 6.0 | 10.0 | 0.00 | 0.00 | 0.00 | 50 | 1020.9 |
| 20260510150033 | 60 | 33 | 1.0 | 6.0 | 0.00 | 0.00 | 0.00 | 49 | 1020.8 |
| 20260510145511 | 59 | 0 | 0.0 | 4.0 | 0.00 | 0.00 | 0.00 | 51 | 1021.0 |
| 20260510145011 | 59 | 0 | 0.0 | 2.0 | 0.00 | 0.00 | 0.00 | 51 | 1020.9 |
| 20260510144542 | 59 | 0 | 0.0 | 6.0 | 0.00 | 0.00 | 0.00 | 52 | 1021.0 |
| 20260510144010 | 59 | 0 | 0.0 | 9.0 | 0.00 | 0.00 | 0.00 | 50 | 1021.1 |
| 20260510143511 | 59 | 0 | 0.0 | 10.0 | 0.00 | 0.00 | 0.00 | 51 | 1021.1 |
| 20260510143028 | 59 | 23 | 3.0 | 12.0 | 0.00 | 0.00 | 0.00 | 49 | 1021.0 |
| 20260510142511 | 59 | 65 | 6.0 | 12.0 | 0.00 | 0.00 | 0.00 | 52 | 1021.0 |
| 20260510142013 | 59 | 35 | 1.0 | 8.0 | 0.00 | 0.00 | 0.00 | 55 | 1020.8 |
| 20260510141528 | 59 | 0 | 0.0 | 11.0 | 0.00 | 0.00 | 0.00 | 51 | 1020.7 |
| 20260510141014 | 59 | 0 | 1.0 | 13.0 | 0.00 | 0.00 | 0.00 | 52 | 1020.7 |
| 20260510140509 | 59 | 58 | 3.0 | 13.0 | 0.00 | 0.00 | 0.00 | 53 | 1020.5 |
| 20260510140028 | 58 | 30 | 7.0 | 13.0 | 0.00 | 0.00 | 0.00 | 52 | 1020.4 |
| 20260510135509 | 58 | 42 | 6.0 | 13.0 | 0.00 | 0.00 | 0.00 | 56 | 1020.3 |
| 20260510135011 | 59 | 30 | 5.0 | 13.0 | 0.00 | 0.00 | 0.00 | 54 | 1020.3 |
| 20260510134530 | 59 | 27 | 2.0 | 11.0 | 0.00 | 0.00 | 0.00 | 53 | 1020.2 |
| 20260510134011 | 58 | 0 | 1.0 | 11.0 | 0.00 | 0.00 | 0.00 | 56 | 1020.1 |
| 20260510133508 | 58 | 0 | 3.0 | 11.0 | 0.00 | 0.00 | 0.00 | 54 | 1020.1 |
| 20260510133033 | 58 | 0 | 4.0 | 10.0 | 0.00 | 0.00 | 0.00 | 58 | 1020.0 |
| 20260510132510 | 58 | 0 | 1.0 | 8.0 | 0.00 | 0.00 | 0.00 | 58 | 1019.9 |
| 20260510132011 | 57 | 0 | 0.0 | 8.0 | 0.00 | 0.00 | 0.00 | 62 | 1019.7 |
| 20260510131530 | 57 | 0 | 1.0 | 10.0 | 0.00 | 0.00 | 0.00 | 58 | 1019.4 |
| 20260510131008 | 57 | 0 | 0.0 | 10.0 | 0.00 | 0.00 | 0.00 | 62 | 1019.2 |
| 20260510130512 | 57 | 38 | 2.0 | 10.0 | 0.00 | 0.00 | 0.00 | 61 | 1019.0 |
| 20260510130028 | 56 | 16 | 0.0 | 6.0 | 0.00 | 0.00 | 0.00 | 62 | 1019.1 |
| 20260510125510 | 56 | 49 | 0.0 | 6.0 | 0.00 | 0.00 | 0.00 | 63 | 1019.0 |
| 20260510125013 | 56 | 0 | 0.0 | 2.0 | 0.00 | 0.00 | 0.00 | 62 | 1019.1 |
| 20260510124529 | 56 | 0 | 0.0 | 2.0 | 0.00 | 0.00 | 0.00 | 63 | 1018.9 |
| 20260510124011 | 56 | 0 | 0.0 | 2.0 | 0.00 | 0.00 | 0.00 | 63 | 1019.0 |
| 20260510123515 | 56 | 0 | 0.0 | 1.0 | 0.00 | 0.00 | 0.00 | 64 | 1019.3 |
| 20260510123032 | 56 | 0 | 0.0 | 0.0 | 0.00 | 0.00 | 0.00 | 64 | 1018.9 |
| 20260510122513 | 56 | 0 | 0.0 | 0.0 | 0.00 | 0.00 | 0.00 | 64 | 1018.7 |
| 20260510122015 | 55 | 0 | 0.0 | 1.0 | 0.00 | 0.00 | 0.00 | 65 | 1018.6 |
| 20260510121529 | 55 | 0 | 0.0 | 1.0 | 0.00 | 0.00 | 0.00 | 65 | 1018.7 |
| 20260510121015 | 55 | 0 | 0.0 | 0.0 | 0.00 | 0.00 | 0.00 | 65 | 1018.7 |
| 20260510120517 | 55 | 0 | 0.0 | 1.0 | 0.00 | 0.00 | 0.00 | 65 | 1018.7 |
| 20260510120035 | 55 | 0 | 0.0 | 1.0 | 0.00 | 0.00 | 0.00 | 65 | 1018.8 |
| 20260510115512 | 55 | 0 | 0.0 | 1.0 | 0.00 | 0.00 | 0.00 | 66 | 1018.7 |
| 20260510115015 | 55 | 0 | 0.0 | 0.0 | 0.00 | 0.00 | 0.00 | 67 | 1018.6 |
| 20260510114530 | 55 | 0 | 0.0 | 0.0 | 0.00 | 0.00 | 0.00 | 68 | 1018.4 |
| 20260510114009 | 54 | 0 | 0.0 | 0.0 | 0.00 | 0.00 | 0.00 | 68 | 1018.3 |
| 20260510113512 | 55 | 0 | 0.0 | 0.0 | 0.00 | 0.00 | 0.00 | 68 | 1018.1 |
| 20260510113028 | 55 | 0 | 0.0 | 0.0 | 0.00 | 0.00 | 0.00 | 66 | 1018.0 |
| 20260510112512 | 55 | 0 | 0.0 | 0.0 | 0.00 | 0.00 | 0.00 | 65 | 1018.0 |
| 20260510112013 | 55 | 0 | 0.0 | 0.0 | 0.00 | 0.00 | 0.00 | 65 | 1018.0 |
| 20260510111528 | 55 | 0 | 0.0 | 0.0 | 0.00 | 0.00 | 0.00 | 64 | 1017.8 |
| 20260510111010 | 56 | 0 | 0.0 | 0.0 | 0.00 | 0.00 | 0.00 | 63 | 1017.8 |
| 20260510110508 | 56 | 0 | 0.0 | 0.0 | 0.00 | 0.00 | 0.00 | 63 | 1017.6 |
| 20260510110037 | 56 | 0 | 0.0 | 0.0 | 0.00 | 0.00 | 0.00 | 63 | 1017.4 |
| 20260510105510 | 56 | 0 | 0.0 | 1.0 | 0.00 | 0.00 | 0.00 | 62 | 1017.5 |
| 20260510105011 | 56 | 0 | 0.0 | 1.0 | 0.00 | 0.00 | 0.00 | 63 | 1017.3 |
| 20260510104530 | 57 | 0 | 0.0 | 1.0 | 0.00 | 0.00 | 0.00 | 63 | 1017.2 |
| 20260510104009 | 57 | 0 | 0.0 | 2.0 | 0.00 | 0.00 | 0.00 | 63 | 1017.3 |
| 20260510103510 | 57 | 0 | 0.0 | 2.0 | 0.00 | 0.00 | 0.00 | 62 | 1017.3 |
| 20260510103037 | 57 | 0 | 0.0 | 2.0 | 0.00 | 0.00 | 0.00 | 63 | 1017.3 |
| 20260510102510 | 57 | 0 | 0.0 | 4.0 | 0.00 | 0.00 | 0.00 | 63 | 1017.2 |
| 20260510102009 | 58 | 0 | 0.0 | 4.0 | 0.00 | 0.00 | 0.00 | 66 | 1017.2 |
| 20260510101530 | 58 | 0 | 0.0 | 1.0 | 0.00 | 0.00 | 0.00 | 66 | 1017.2 |
| 20260510101009 | 58 | 0 | 0.0 | 1.0 | 0.00 | 0.00 | 0.00 | 67 | 1016.9 |
| 20260510100509 | 58 | 0 | 0.0 | 1.0 | 0.00 | 0.00 | 0.00 | 67 | 1016.9 |
| 20260510100033 | 58 | 0 | 0.0 | 2.0 | 0.00 | 0.00 | 0.00 | 67 | 1016.8 |
| 20260510095509 | 58 | 32 | 0.0 | 3.0 | 0.00 | 0.00 | 0.00 | 69 | 1016.8 |
| 20260510095008 | 58 | 0 | 0.0 | 3.0 | 0.00 | 0.00 | 0.00 | 70 | 1016.8 |
| 20260510094529 | 58 | 0 | 0.0 | 3.0 | 0.00 | 0.00 | 0.00 | 73 | 1016.6 |
| 20260510094009 | 58 | 0 | 0.0 | 1.0 | 0.00 | 0.00 | 0.00 | 75 | 1016.4 |
| 20260510093510 | 58 | 0 | 0.0 | 1.0 | 0.00 | 0.00 | 0.00 | 77 | 1016.2 |
| 20260510093030 | 58 | 0 | 0.0 | 1.0 | 0.00 | 0.00 | 0.00 | 78 | 1016.0 |
| 20260510092512 | 58 | 0 | 0.0 | 0.0 | 0.00 | 0.00 | 0.00 | 79 | 1015.9 |
| 20260510092010 | 58 | 0 | 0.0 | 0.0 | 0.00 | 0.00 | 0.00 | 79 | 1015.9 |
| 20260510091530 | 58 | 0 | 0.0 | 0.0 | 0.00 | 0.00 | 0.00 | 80 | 1015.8 |
| 20260510091010 | 58 | 0 | 0.0 | 0.0 | 0.00 | 0.00 | 0.00 | 80 | 1015.7 |
| 20260510090510 | 58 | 0 | 0.0 | 0.0 | 0.00 | 0.00 | 0.00 | 80 | 1015.6 |
| 20260510090034 | 58 | 0 | 0.0 | 0.0 | 0.00 | 0.00 | 0.00 | 79 | 1015.4 |
| 20260510085511 | 58 | 0 | 0.0 | 0.0 | 0.00 | 0.00 | 0.00 | 79 | 1015.3 |
| 20260510085010 | 58 | 0 | 0.0 | 0.0 | 0.00 | 0.00 | 0.00 | 79 | 1015.2 |
| 20260510084528 | 59 | 0 | 0.0 | 0.0 | 0.00 | 0.00 | 0.00 | 79 | 1015.1 |
| 20260510084016 | 59 | 0 | 0.0 | 0.0 | 0.00 | 0.00 | 0.00 | 79 | 1014.9 |
| 20260510083511 | 58 | 0 | 0.0 | 1.0 | 0.00 | 0.00 | 0.00 | 80 | 1014.9 |
| 20260510083037 | 58 | 0 | 0.0 | 1.0 | 0.00 | 0.00 | 0.00 | 81 | 1014.9 |
| 20260510082512 | 58 | 0 | 0.0 | 0.0 | 0.00 | 0.00 | 0.00 | 81 | 1014.7 |
| 20260510082015 | 59 | 0 | 0.0 | 0.0 | 0.00 | 0.00 | 0.00 | 81 | 1014.6 |
| 20260510081528 | 59 | 0 | 0.0 | 0.0 | 0.00 | 0.00 | 0.00 | 80 | 1014.5 |
| 20260510081011 | 59 | 0 | 0.0 | 0.0 | 0.00 | 0.00 | 0.00 | 80 | 1014.5 |
| 20260510080514 | 59 | 0 | 0.0 | 0.0 | 0.00 | 0.00 | 0.00 | 80 | 1014.5 |
| 20260510080028 | 59 | 0 | 0.0 | 6.0 | 0.00 | 0.00 | 0.00 | 79 | 1014.5 |
| 20260510075514 | 60 | 0 | 0.0 | 6.0 | 0.00 | 0.00 | 0.00 | 79 | 1014.3 |
| 20260510075010 | 60 | 25 | 0.0 | 4.0 | 0.00 | 0.00 | 0.00 | 78 | 1014.4 |
| 20260510074528 | 60 | 0 | 0.0 | 0.0 | 0.00 | 0.00 | 0.00 | 79 | 1014.5 |
| 20260510074010 | 60 | 0 | 0.0 | 0.0 | 0.00 | 0.00 | 0.00 | 78 | 1014.8 |
| 20260510073515 | 60 | 0 | 0.0 | 0.0 | 0.00 | 0.00 | 0.00 | 78 | 1014.9 |
| 20260510073032 | 60 | 0 | 0.0 | 1.0 | 0.00 | 0.00 | 0.00 | 79 | 1014.9 |
| 20260510072509 | 60 | 0 | 0.0 | 1.0 | 0.00 | 0.00 | 0.00 | 80 | 1014.6 |
| 20260510072014 | 60 | 0 | 0.0 | 0.0 | 0.00 | 0.00 | 0.00 | 81 | 1014.5 |
| 20260510071540 | 60 | 0 | 0.0 | 0.0 | 0.00 | 0.00 | 0.00 | 80 | 1014.3 |
| 20260510071010 | 60 | 0 | 0.0 | 0.0 | 0.00 | 0.00 | 0.00 | 80 | 1014.2 |
| 20260510070510 | 60 | 0 | 0.0 | 0.0 | 0.00 | 0.00 | 0.00 | 80 | 1014.1 |
| 20260510070031 | 60 | 0 | 0.0 | 0.0 | 0.00 | 0.00 | 0.00 | 79 | 1014.3 |
| 20260510065509 | 60 | 0 | 0.0 | 0.0 | 0.00 | 0.01 | 0.00 | 79 | 1014.5 |
| 20260510065010 | 60 | 0 | 0.0 | 0.0 | 0.00 | 0.01 | 0.00 | 80 | 1014.3 |
| 20260510064530 | 60 | 0 | 0.0 | 0.0 | 0.00 | 0.01 | 0.00 | 80 | 1014.3 |
| 20260510064010 | 61 | 0 | 0.0 | 0.0 | 0.00 | 0.01 | 0.00 | 80 | 1014.4 |
| 20260510063511 | 61 | 0 | 0.0 | 0.0 | 0.00 | 0.01 | 0.00 | 79 | 1014.5 |
| 20260510063028 | 61 | 0 | 0.0 | 0.0 | 0.00 | 0.01 | 0.00 | 79 | 1014.9 |
| 20260510062510 | 61 | 0 | 0.0 | 1.0 | 0.00 | 0.01 | 0.00 | 79 | 1014.7 |
| 20260510062011 | 62 | 0 | 0.0 | 1.0 | 0.00 | 0.01 | 0.00 | 78 | 1014.6 |
| 20260510061529 | 62 | 0 | 0.0 | 2.0 | 0.00 | 0.01 | 0.00 | 78 | 1014.7 |
| 20260510061011 | 62 | 0 | 0.0 | 2.0 | 0.00 | 0.01 | 0.00 | 78 | 1014.6 |
| 20260510060512 | 62 | 2 | 0.0 | 2.0 | 0.00 | 0.01 | 0.00 | 78 | 1014.7 |
| 20260510060035 | 62 | 0 | 0.0 | 0.0 | 0.00 | 0.01 | 0.00 | 77 | 1014.7 |
| 20260510055515 | 62 | 0 | 0.0 | 0.0 | 0.00 | 0.01 | 0.00 | 76 | 1014.8 |
| 20260510055011 | 62 | 0 | 0.0 | 0.0 | 0.00 | 0.01 | 0.00 | 76 | 1014.7 |
| 20260510054528 | 63 | 0 | 0.0 | 0.0 | 0.00 | 0.01 | 0.00 | 76 | 1014.7 |
| 20260510054009 | 63 | 0 | 0.0 | 1.0 | 0.00 | 0.01 | 0.00 | 75 | 1014.7 |
| 20260510053510 | 63 | 0 | 0.0 | 1.0 | 0.00 | 0.01 | 0.00 | 75 | 1014.6 |
| 20260510053029 | 63 | 0 | 0.0 | 1.0 | 0.00 | 0.01 | 0.00 | 74 | 1014.5 |
| 20260510052513 | 63 | 0 | 0.0 | 5.0 | 0.00 | 0.01 | 0.00 | 74 | 1014.3 |
| 20260510052014 | 64 | 0 | 0.0 | 5.0 | 0.00 | 0.01 | 0.00 | 73 | 1014.4 |
| 20260510051538 | 64 | 0 | 0.0 | 1.0 | 0.00 | 0.01 | 0.00 | 73 | 1014.1 |
| 20260510051010 | 64 | 36 | 0.0 | 1.0 | 0.00 | 0.01 | 0.00 | 73 | 1014.0 |
| 20260510050511 | 64 | 0 | 0.0 | 1.0 | 0.00 | 0.01 | 0.00 | 73 | 1013.9 |
| 20260510050027 | 64 | 0 | 0.0 | 1.0 | 0.00 | 0.01 | 0.00 | 73 | 1013.8 |
| 20260510045511 | 64 | 0 | 0.0 | 0.0 | 0.00 | 0.01 | 0.01 | 73 | 1013.7 |
| 20260510045016 | 63 | 0 | 0.0 | 0.0 | 0.00 | 0.01 | 0.01 | 73 | 1013.5 |
| 20260510044534 | 63 | 0 | 0.0 | 0.0 | 0.00 | 0.01 | 0.01 | 74 | 1013.5 |
| 20260510044008 | 63 | 0 | 0.0 | 0.0 | 0.00 | 0.01 | 0.01 | 74 | 1013.5 |
| 20260510043512 | 63 | 0 | 0.0 | 0.0 | 0.00 | 0.01 | 0.01 | 74 | 1013.4 |
| 20260510043029 | 63 | 0 | 0.0 | 0.0 | 0.00 | 0.01 | 0.01 | 74 | 1013.4 |
| 20260510042510 | 63 | 0 | 0.0 | 0.0 | 0.00 | 0.01 | 0.01 | 75 | 1013.3 |
| 20260510042014 | 63 | 0 | 0.0 | 0.0 | 0.00 | 0.01 | 0.01 | 75 | 1013.0 |
| 20260510041535 | 63 | 0 | 0.0 | 0.0 | 0.00 | 0.01 | 0.01 | 75 | 1012.9 |
| 20260510041009 | 62 | 0 | 0.0 | 0.0 | 0.00 | 0.01 | 0.01 | 75 | 1012.8 |
| 20260510040508 | 63 | 0 | 0.0 | 0.0 | 0.00 | 0.01 | 0.01 | 76 | 1012.7 |
| 20260510040030 | 63 | 0 | 0.0 | 0.0 | 0.00 | 0.01 | 0.01 | 77 | 1012.7 |
| 20260510035510 | 63 | 0 | 0.0 | 0.0 | 0.00 | 0.01 | 0.01 | 77 | 1012.5 |
| 20260510035009 | 63 | 0 | 0.0 | 0.0 | 0.00 | 0.01 | 0.01 | 75 | 1012.3 |
| 20260510034527 | 64 | 0 | 0.0 | 0.0 | 0.00 | 0.01 | 0.01 | 73 | 1012.5 |
| 20260510034010 | 64 | 0 | 0.0 | 0.0 | 0.00 | 0.01 | 0.01 | 72 | 1012.5 |
| 20260510033507 | 65 | 0 | 0.0 | 0.0 | 0.00 | 0.01 | 0.01 | 71 | 1012.5 |
| 20260510033029 | 65 | 0 | 0.0 | 0.0 | 0.00 | 0.01 | 0.01 | 70 | 1012.5 |
| 20260510032510 | 65 | 0 | 0.0 | 0.0 | 0.00 | 0.01 | 0.01 | 68 | 1012.5 |
| 20260510032010 | 65 | 0 | 0.0 | 0.0 | 0.00 | 0.01 | 0.01 | 68 | 1012.6 |
| 20260510031529 | 66 | 0 | 0.0 | 0.0 | 0.00 | 0.01 | 0.01 | 68 | 1012.5 |
| 20260510031010 | 66 | 0 | 0.0 | 0.0 | 0.00 | 0.01 | 0.01 | 68 | 1012.4 |
| 20260510030513 | 67 | 0 | 0.0 | 0.0 | 0.00 | 0.01 | 0.01 | 67 | 1012.3 |
| 20260510030032 | 67 | 0 | 0.0 | 0.0 | 0.00 | 0.01 | 0.01 | 66 | 1012.3 |
| 20260510025510 | 68 | 0 | 0.0 | 0.0 | 0.00 | 0.01 | 0.01 | 63 | 1012.2 |
| 20260510025010 | 68 | 0 | 0.0 | 0.0 | 0.00 | 0.01 | 0.01 | 63 | 1012.2 |
| 20260510024530 | 68 | 0 | 0.0 | 0.0 | 0.00 | 0.01 | 0.01 | 62 | 1012.1 |
| 20260510024009 | 68 | 0 | 0.0 | 1.0 | 0.00 | 0.01 | 0.01 | 62 | 1012.0 |
| 20260510023510 | 69 | 0 | 0.0 | 1.0 | 0.00 | 0.01 | 0.01 | 62 | 1012.0 |
| 20260510023028 | 69 | 0 | 0.0 | 1.0 | 0.00 | 0.01 | 0.01 | 60 | 1011.8 |
| 20260510022511 | 69 | 0 | 0.0 | 0.0 | 0.00 | 0.01 | 0.01 | 59 | 1011.6 |
| 20260510022010 | 70 | 0 | 0.0 | 0.0 | 0.00 | 0.01 | 0.01 | 59 | 1011.5 |
| 20260510021532 | 70 | 0 | 0.0 | 1.0 | 0.00 | 0.01 | 0.01 | 59 | 1011.5 |
| 20260510021010 | 70 | 0 | 0.0 | 1.0 | 0.00 | 0.01 | 0.01 | 58 | 1011.4 |
| 20260510020507 | 70 | 0 | 0.0 | 9.0 | 0.00 | 0.01 | 0.01 | 58 | 1011.2 |
| 20260510020028 | 71 | 0 | 0.0 | 9.0 | 0.00 | 0.01 | 0.01 | 57 | 1011.0 |
| 20260510015511 | 71 | 37 | 0.0 | 6.0 | 0.00 | 0.14 | 0.01 | 57 | 1011.0 |
| 20260510015013 | 71 | 0 | 0.0 | 9.0 | 0.00 | 0.14 | 0.01 | 56 | 1010.8 |
| 20260510014529 | 71 | 0 | 0.0 | 9.0 | 0.00 | 0.14 | 0.01 | 58 | 1010.5 |
| 20260510014012 | 71 | 0 | 0.0 | 2.0 | 0.00 | 0.14 | 0.01 | 60 | 1010.3 |
| 20260510013510 | 70 | 0 | 0.0 | 0.0 | 0.00 | 0.14 | 0.01 | 65 | 1010.1 |
| 20260510013029 | 71 | 0 | 0.0 | 0.0 | 0.00 | 0.14 | 0.01 | 62 | 1009.6 |
| 20260510012511 | 71 | 0 | 0.0 | 0.0 | 0.00 | 0.14 | 0.01 | 61 | 1009.5 |
| 20260510012011 | 71 | 0 | 0.0 | 0.0 | 0.00 | 0.14 | 0.01 | 60 | 1009.4 |
| 20260510011536 | 71 | 0 | 0.0 | 0.0 | 0.00 | 0.14 | 0.01 | 60 | 1009.3 |
| 20260510011010 | 71 | 0 | 0.0 | 0.0 | 0.00 | 0.14 | 0.01 | 59 | 1009.2 |
| 20260510010511 | 72 | 0 | 0.0 | 0.0 | 0.00 | 0.14 | 0.01 | 59 | 1009.3 |
| 20260510010036 | 72 | 0 | 0.0 | 0.0 | 0.00 | 0.14 | 0.01 | 57 | 1009.1 |
| 20260510005510 | 73 | 0 | 0.0 | 0.0 | 0.00 | 0.29 | 0.01 | 57 | 1009.2 |
| 20260510005011 | 73 | 0 | 0.0 | 0.0 | 0.00 | 0.29 | 0.01 | 55 | 1009.2 |
| 20260510004527 | 74 | 0 | 0.0 | 0.0 | 0.00 | 0.29 | 0.01 | 55 | 1009.1 |
| 20260510004010 | 75 | 0 | 0.0 | 0.0 | 0.00 | 0.29 | 0.01 | 53 | 1009.1 |
| 20260510003511 | 75 | 0 | 0.0 | 0.0 | 0.00 | 0.29 | 0.01 | 52 | 1009.0 |
| 20260510003029 | 76 | 0 | 0.0 | 0.0 | 0.00 | 0.29 | 0.01 | 50 | 1009.1 |
| 20260510002508 | 77 | 0 | 0.0 | 0.0 | 0.00 | 0.29 | 0.01 | 49 | 1009.1 |
| 20260510002014 | 78 | 0 | 0.0 | 0.0 | 0.00 | 0.29 | 0.01 | 49 | 1009.0 |
| 20260510001533 | 79 | 0 | 0.0 | 1.0 | 0.00 | 0.29 | 0.01 | 47 | 1009.0 |
| 20260510001010 | 79 | 0 | 0.0 | 1.0 | 0.00 | 0.29 | 0.01 | 47 | 1009.0 |
| 20260510000507 | 79 | 0 | 0.0 | 0.0 | 0.00 | 0.29 | 0.01 | 46 | 1009.0 |
| 20260510000030 | 79 | 0 | 0.0 | 0.0 | 0.00 | 0.29 | 0.01 | 48 | 1009.0 |
| 20260509235513 | 79 | 0 | 0.0 | 1.0 | 0.00 | 0.37 | 0.01 | 46 | 1009.1 |
| 20260509235009 | 79 | 0 | 0.0 | 1.0 | 0.00 | 0.37 | 0.01 | 47 | 1009.1 |
| 20260509234528 | 79 | 0 | 0.0 | 0.0 | 0.00 | 0.37 | 0.01 | 46 | 1009.0 |
| 20260509234011 | 79 | 0 | 0.0 | 0.0 | 0.00 | 0.37 | 0.01 | 47 | 1009.0 |
| 20260509233509 | 80 | 0 | 0.0 | 1.0 | 0.00 | 0.37 | 0.01 | 46 | 1009.0 |
| 20260509233028 | 80 | 0 | 0.0 | 1.0 | 0.00 | 0.37 | 0.01 | 46 | 1009.0 |
| 20260509232513 | 79 | 0 | 0.0 | 1.0 | 0.00 | 0.37 | 0.01 | 45 | 1009.1 |
| 20260509232013 | 79 | 0 | 0.0 | 1.0 | 0.00 | 0.37 | 0.01 | 48 | 1009.1 |
| 20260509231532 | 78 | 0 | 0.0 | 1.0 | 0.00 | 0.37 | 0.01 | 49 | 1009.0 |
| 20260509231012 | 77 | 0 | 0.0 | 1.0 | 0.00 | 0.37 | 0.01 | 49 | 1009.0 |